Location: Hiekkapohja
(62.3333°N, 25.7833°E)
Time: 01:00:53
(UTC+00:00)

Lacrosse 4 Rocket - Pass Details

Date: 07 August 2020
Orbit: 544 x 615 km, 68.0° (Epoch: 20 September)

Event Time Altitude Azimuth Distance (km) Brightness Sun altitude
Exits shadow 00:12:59 - 231° (SW) 1,986 3.6 -8.4°
Reaches altitude 10° 00:13:13 10° 231° (SW) 1,892 3.5 -8.4°
Maximum altitude 00:17:28 89° 140° (SE) 577 1.4 -8.1°
Drops below altitude 10° 00:21:38 10° 53° (NE) 1,859 5.2 -7.9°
Sets 00:23:50 0° 54° (NE) 2,748 6.3 -7.8°
